Showing default

ANGOSAT 1, 43087

Orbit data source: Space-Track

ANGOSAT 1, 43087 is a payload satellite owned by GGPEN (AO) in GEO that was launched on Tue, 26 Dec 2017 UTC via a ZENIT-3SLBF launch vehicle from the Tyuratam Missile And Space Complex (TTMTR). Payload-class satellites include a variety of spacecraft equipped with specific instruments for various scientific and technological missions. These include communications satellites like Starlink; space stations such as the ISS; scientific satellites like the Hubble; Earth observation satellites from companies like Planet Labs, Umbra, and HawkEye 360; GPS; miniature CubeSats for education and research; and military/defense satellites.

Not visible in the next 10 days
Identifier
43087, 2017-086A
Orbit
GEO
Country
Flag of AOAO / AGO
Related business
Manufacturer
RKKE
Mission
Non-operational Civil Communications
Bus & Motor
YAMAL 100, Unknown motor
Mass
1,647 kg wet, ~1,400 kg dry
Launch date (UTC)
2017-12-26 (8 years ago)
Launch vehicle
ZENIT-3SLBF
Launch site
Tyuratam Missile And Space Complex (TTMTR)
Object type
Payload
Rocket body
Debris
Shape & HBR
Box + 2 Pan, 6.0 m
Radar Cross Section
11.377 m², Large (>1 m²)

Expand to show TLE details & history
Last TLE update: 9 hours ago

TLE from 9 hours ago
0 ANGOSAT 1
1 43087U 17086A   25259.22705299 -.00000156  00000-0  00000-0 0  9996
2 43087   6.8876  70.4512 0020537 163.8675 203.7876  0.99383349 28013
Epoch: 2025-09-16T05:26Z
TLE epoch observation values (Epoch: 2025-09-16T05:26:57.378Z)
Latitude
0.88413°
Longitude
0.78892°
Altitude
36,116.314 km
Speed
3.06 km/s
True Right ascension
05h 11m 47s
True Declination
0° 52' 60"
Sunlit
Object was in daylight at epoch
Visualization orbit readout
Latitude
Unknown
Longitude
Unknown
Altitude
Unknown
Speed
Unknown
Apparent Right ascension
Unknown
Apparent Declination
Unknown
Sunlit
N/A
Visualization observer readout
Local Sidereal Time
07:11:15
Azimuth
Unknown
Elevation
Unknown
Doppler factor
Unknown
Orbital elements
Apogee altitude
36,125.662 km
Perigee altitude
35,951.44 km
Semi-major axis
42,416.688 km
Eccentricity
0.00205
Inclination
6.8876°
RAAN
70.4512°
Arg. of periapsis
163.8675°
True anomaly
203.6929°
Mean anomaly
203.7876°
Eccentric anomaly
203.74023°
Mean motion
0.24845 °/min
Orbital period
1,448.99 mins
BSTAR
0
Loading maneuver chart data...
Computing Atmospheric mass density...
Loading historical data...
Loading historical data...
Loading historical data...
Loading historical data...
Loading historical data...
Loading historical data...
Loading historical data...

Documentation

Showing up to 5 results
|